Location: Newark
(48.1500°N, 2.9667°W)
Time: 21:16:20
(UTC+00:00)

Tiros 1 - Visible Passes

Search period start: 17 January 2020 00:00
Search period end: 27 January 2020 00:00
Orbit: 630 x 664 km, 48.4° (Epoch: 17 January)

Date Brightness Start Highest point End Pass type
(mag) Time Alt. Az. Time Alt. Az. Time Alt. Az.
17 Jan 7.2 17:40:44 10° WSW 17:45:32 84° SSE 17:49:49 13° E visible
17 Jan 7.2 19:23:00 10° W 19:27:30 78° W 19:27:30 78° W visible
18 Jan 7.2 18:06:49 10° W 18:11:38 86° N 18:14:51 21° E visible
18 Jan 8.2 19:49:05 10° W 19:52:31 45° W 19:52:31 45° W visible
19 Jan 7.1 18:32:56 10° W 18:37:45 89° S 18:39:55 33° E visible
19 Jan 9.1 20:15:13 10° W 20:17:35 27° W 20:17:35 27° W visible
20 Jan 7.3 18:59:02 10° W 19:03:49 72° SSW 19:05:02 48° SE visible
20 Jan 9.9 20:41:33 10° W 20:42:44 16° W 20:42:44 16° W visible
21 Jan 7.2 17:42:53 10° W 17:47:41 89° NNW 17:52:31 10° E visible
21 Jan 7.8 19:25:09 10° W 19:29:46 48° SSW 19:30:16 46° S visible
22 Jan 7.3 18:08:59 10° W 18:13:45 74° SSW 18:17:53 14° ESE visible
22 Jan 8.7 19:51:27 10° W 19:55:34 29° SW 19:55:35 29° SW visible
23 Jan 7.9 18:35:05 10° W 18:39:44 50° SSW 18:43:20 16° SE visible
23 Jan 9.7 20:18:22 10° W 20:21:03 16° SW 20:21:03 16° SW visible
24 Jan 8.8 19:01:22 10° W 19:05:32 30° SW 19:08:59 14° SSE visible
25 Jan 8.0 17:45:02 10° W 17:49:41 53° SSW 17:54:20 10° SE visible
25 Jan 9.7 19:28:10 10° W 19:31:10 17° SW 19:34:11 10° S visible
26 Jan 8.9 18:11:16 10° W 18:15:30 32° SSW 18:19:45 10° SSE visible
